Back to catalog

GLOBALSTAR M060

AliveCommunicationsLEO
NORAD 26083·PAYLOAD·🇺🇸 United States

Launched Feb 8, 2000 from Cape Canaveral Space Force Station

Loading…

Next Passes (next 24 hours)

TLE

FreshSource: Space-Track

Epoch: Sep 14, 2026, 08:24 UTC

1 26083U 00008C   26257.35008148 -.00000060  00000-0  31241-3 0  9999
2 26083  51.9998 224.4584 0003444 335.0248 191.4290 12.17681781207693

Track GLOBALSTAR M060 in real time with AllMySat

Download on the App Store